Weather History for KBGR - January, 2014

Change the Weather History Date:

Monday, January 20, 2014

  Actual Average Record
Temperature  
Mean Temperature 24 °F 16 °F  
Max Temperature 43 °F 27 °F 54 °F (1996)
Min Temperature 5 °F 6 °F -25 °F (1971)
Degree Days  
Heating Degree Days 41 49  
Month to date heating degree days 863 957  
Since 1 July heating degree days 3875 3878  
Cooling Degree Days 0 0  
Month to date cooling degree days 0 0  
Year to date cooling degree days 0 0  
Moisture  
Dew Point 15 °F    
Average Humidity 66    
Maximum Humidity 81    
Minimum Humidity 50    
Precipitation  
Precipitation T in 0.09 in 0.99 in (1947)
Month to date precipitation 2.92 1.87  
Year to date precipitation 2.92 1.87  
Snow  
Snow T in 0.60 in 8.00 in (2010)
Month to date snowfall 6.8 12.5  
Since 1 July snowfall 36.1 29.3  
Snow Depth 4.00 in    
Sea Level Pressure  
Sea Level Pressure 29.56 in    
Wind  
Wind Speed 11 mph (NW)    
Max Wind Speed 21 mph    
Max Gust Speed 31 mph    
Visibility 8 miles    
Events Snow    
T = Trace of Precipitation, MM = Missing Value Source: NWS Daily Summary

Daily Weather History Graph

Daily Weather History Graph

Search for Another Location

Airport or City:

Trip Planner

Search our weather history database for the weather conditions in past years. The results will help you decide how hot, cold, wet, or windy it might be!

Date:

Astronomy

Jan. 20, 2014 Rise Set
Actual Time 7:06 AM EST 4:27 PM EST
Civil Twilight 6:33 AM EST 4:59 PM EST
Nautical Twilight 5:57 AM EST 5:35 PM EST
Astronomical Twilight 5:23 AM EST 6:09 PM EST
Moon 9:12 PM EST (1/20) 8:51 AM EST (1/20)
Length of Visible Light 10h 25m
Length of Day
9h 21m
Waning Gibbous, 83% of the Moon is Illuminated
Jan 20
Waning Gibbous
Jan 24
Last Quarter
Jan 30
New
Feb 6
First Quarter
Feb 14
Full

Hourly Weather History & Observations

Time (EST) Temp. Windchill Dew Point Humidity Pressure Visibility Wind Dir Wind Speed Gust Speed Precip Events Conditions
12:53 AM 24.1 °F 14.4 °F 18.0 °F 77% 29.41 in 10.0 mi South 9.2 mph - N/A   Partly Cloudy
1:53 AM 26.1 °F 15.0 °F 19.0 °F 75% 29.43 in 10.0 mi South 12.7 mph - N/A   Mostly Cloudy
2:53 AM 27.0 °F 16.7 °F 19.9 °F 75% 29.44 in 10.0 mi SSW 11.5 mph - N/A   Overcast
3:53 AM 28.0 °F 17.5 °F 21.0 °F 75% 29.45 in 10.0 mi SSW 12.7 mph 18.4 mph N/A   Overcast
4:53 AM 28.0 °F 18.1 °F 21.0 °F 75% 29.46 in 10.0 mi SSW 11.5 mph - N/A   Overcast
5:53 AM 28.9 °F 19.2 °F 21.9 °F 75% 29.47 in 10.0 mi SSW 11.5 mph - N/A   Overcast
6:53 AM 28.9 °F 21.9 °F 21.9 °F 75% 29.49 in 10.0 mi SW 6.9 mph - N/A   Overcast
7:53 AM 28.9 °F 21.9 °F 21.9 °F 75% 29.49 in 10.0 mi SW 6.9 mph - N/A   Overcast
8:53 AM 30.0 °F 24.1 °F 23.0 °F 75% 29.48 in 10.0 mi SW 5.8 mph - N/A   Overcast
9:53 AM 30.9 °F 24.3 °F 23.0 °F 72% 29.49 in 10.0 mi WSW 6.9 mph - 0.00 in Snow Light Snow
10:53 AM 32.0 °F 28.7 °F 24.1 °F 73% 29.48 in 10.0 mi West 3.5 mph - 0.00 in Snow Light Snow
11:29 AM 32.0 °F 26.4 °F 24.1 °F 73% 29.47 in 2.5 mi WNW 5.8 mph - 0.00 in Snow Light Snow
11:53 AM 30.9 °F 22.8 °F 25.0 °F 79% 29.47 in 1.0 mi NNW 9.2 mph - 0.00 in Snow Light Snow
12:15 PM 28.9 °F 18.6 °F 25.0 °F 85% 29.47 in 1.5 mi North 12.7 mph - 0.00 in Snow Light Snow
12:35 PM 27.0 °F 15.6 °F 21.9 °F 81% 29.45 in 3.0 mi North 13.8 mph - 0.00 in Snow Light Snow
12:53 PM 26.1 °F 15.6 °F 21.0 °F 81% 29.47 in 4.0 mi North 11.5 mph - 0.00 in Snow Light Snow
1:53 PM 26.1 °F 16.2 °F 19.0 °F 75% 29.48 in 9.0 mi North 10.4 mph - 0.00 in Snow Light Snow
2:53 PM 25.0 °F 15.5 °F 18.0 °F 75% 29.50 in 9.0 mi North 9.2 mph - 0.00 in Snow Light Snow
3:53 PM 24.1 °F 15.2 °F 17.1 °F 75% 29.53 in 10.0 mi NNW 8.1 mph - 0.00 in   Overcast
4:24 PM 24.1 °F 13.7 °F 16.0 °F 71% 29.55 in 10.0 mi NNW 10.4 mph - 0.00 in Snow Light Snow
4:53 PM 23.0 °F 9.6 °F 15.1 °F 72% 29.57 in 8.0 mi NW 16.1 mph - 0.00 in Snow Light Snow
5:39 PM 21.0 °F 7.1 °F 12.9 °F 71% 29.61 in 2.0 mi NNW 16.1 mph - 0.00 in Snow Light Snow
5:43 PM 21.0 °F 7.6 °F 12.9 °F 71% 29.61 in 3.0 mi NNW 15.0 mph - 0.00 in Snow Light Snow
5:53 PM 21.0 °F 6.6 °F 12.0 °F 68% 29.63 in 6.0 mi NNW 17.3 mph - 0.00 in Snow Light Snow
6:06 PM 19.9 °F 6.7 °F 12.9 °F 74% 29.62 in - NNW 13.8 mph - 0.00 in   Overcast
6:12 PM 19.9 °F 6.7 °F 12.9 °F 74% 29.63 in 4.0 mi NNW 13.8 mph - 0.00 in Snow Light Snow
6:34 PM 23.0 °F 10.6 °F 12.0 °F 63% 29.64 in 7.0 mi NNW 13.8 mph - 0.00 in Snow Light Snow
6:53 PM 18.0 °F 5.4 °F 12.0 °F 78% 29.67 in 10.0 mi NNW 11.5 mph - 0.00 in   Scattered Clouds
7:53 PM 14.0 °F -0.8 °F 5.0 °F 67% 29.71 in 10.0 mi NNW 13.8 mph - N/A   Partly Cloudy
8:53 PM 14.0 °F -2.5 °F -0.0 °F 54% 29.74 in 10.0 mi NW 17.3 mph - N/A   Partly Cloudy
9:53 PM 10.0 °F -7.6 °F -6.0 °F 48% 29.78 in 10.0 mi WNW 17.3 mph 28.8 mph N/A   Clear
10:53 PM 10.0 °F -9.1 °F -6.0 °F 48% 29.82 in 10.0 mi NW 20.7 mph 31.1 mph N/A   Clear
11:53 PM 5.0 °F -14.2 °F -9.9 °F 50% 29.86 in 10.0 mi WNW 17.3 mph - N/A   Clear